Wind_Speed
29 29 29 29 30 29 25 23 25 27 29 30 31 31 31 31 31 30 25 23 22 22 21 20 19 17 17 16 15 14 13 12 11 11 10 10 9 9 9 9 9 10 10 11 12 13 13 14 15
32 31 31 31 31 28 23 23 26 28 30 31 31 31 31 31 32 29 26 24 23 22 22 20 20 19 18 17 16 15 14 13 12 12 11 10 10 9 10 10 10 11 11 12 13 14 14 15 16
35 34 34 33 31 27 24 26 28 29 31 31 31 31 32 32 32 30 28 26 25 24 23 21 21 20 19 18 17 15 15 14 13 12 11 10 10 10 10 11 11 12 13 13 14 14 15 17 17
38 37 37 35 30 26 26 28 31 31 32 31 31 32 33 32 31 30 29 28 26 25 24 23 22 21 20 19 18 16 15 14 13 12 12 11 11 11 11 12 12 13 13 14 15 15 17 17 18
41 41 40 37 31 28 29 30 32 31 32 31 32 33 33 32 32 32 31 30 28 26 25 24 23 22 20 20 19 18 16 15 14 13 12 12 12 12 12 13 13 13 14 15 16 17 18 19 20
43 43 42 38 33 31 32 33 33 32 32 32 34 34 34 33 33 33 32 31 29 28 27 25 24 23 21 20 20 18 17 16 15 14 13 12 12 13 13 13 14 15 15 16 17 18 19 20 22
45 46 44 40 36 34 33 34 34 33 33 33 34 34 34 33 33 33 33 32 30 29 28 27 25 24 23 22 21 19 18 17 16 15 13 13 14 14 14 14 15 16 16 17 18 19 20 22 23
48 48 47 43 39 36 35 36 36 35 34 34 36 36 35 34 33 34 33 32 31 30 29 28 26 25 24 23 22 21 19 18 16 15 14 14 14 14 15 15 16 16 17 18 20 21 22 23 24
51 51 49 43 40 37 38 39 38 37 37 36 37 37 35 35 34 34 33 32 32 31 30 29 28 26 24 23 22 21 20 18 17 16 15 15 15 15 15 16 16 17 18 20 21 22 23 25 26
54 53 48 43 42 41 41 41 40 40 39 37 38 37 35 35 34 34 34 33 32 32 30 30 29 27 25 24 23 22 20 19 18 17 17 16 16 16 16 16 17 18 19 21 22 23 25 26 28
55 53 48 46 45 45 44 44 42 42 40 38 38 37 36 35 35 35 34 34 33 32 31 30 29 28 26 25 24 22 21 20 19 18 17 17 17 16 17 18 18 19 21 22 23 25 26 28 29
56 53 51 49 48 48 47 46 45 44 41 40 40 39 38 37 36 36 35 34 34 33 32 31 30 29 28 26 25 23 22 21 20 19 19 18 18 18 18 19 20 21 22 24 25 26 28 29 30
56 54 53 51 50 49 49 48 47 46 43 43 42 42 40 38 38 37 36 36 35 34 32 31 30 29 28 27 26 24 23 22 21 20 20 19 19 19 19 20 21 23 24 25 26 28 29 31 32
55 55 55 54 52 51 51 50 50 47 45 44 44 43 41 39 38 38 37 36 35 34 33 32 31 30 29 28 27 25 24 23 22 21 21 20 20 20 21 22 23 24 25 27 28 29 31 32 33
55 56 56 55 53 52 52 54 52 47 47 46 45 43 42 41 40 39 38 37 36 35 34 33 32 31 30 29 28 26 25 24 23 22 22 21 21 22 23 24 25 26 27 28 29 31 32 33 34
55 56 57 55 53 53 55 55 50 49 49 48 46 45 43 42 41 40 40 38 37 36 35 34 33 32 30 29 28 27 26 25 24 23 23 23 23 24 24 25 26 27 28 30 31 32 33 34 34
56 57 56 54 54 53 56 55 51 50 51 49 48 47 45 43 42 41 40 40 38 38 37 35 34 33 32 31 29 28 27 26 25 25 24 25 25 25 26 26 27 28 29 31 32 33 34 34 35
54 56 55 54 53 54 56 55 52 52 52 51 50 49 47 45 43 42 41 41 40 39 38 37 36 35 33 32 30 29 28 27 26 26 26 26 26 26 27 28 28 29 31 32 32 33 34 35 35
50 53 55 53 52 54 56 55 53 53 53 52 52 50 48 46 44 44 43 42 41 40 39 38 37 36 34 33 31 30 29 28 27 27 27 27 27 27 28 29 30 31 32 32 33 34 34 35 36
50 52 53 54 53 55 56 56 55 55 54 53 52 51 49 48 46 45 44 43 42 41 40 38 38 37 35 34 32 31 30 30 29 28 28 28 28 29 30 30 31 32 32 33 34 34 35 36 36
50 50 50 52 53 54 56 58 57 56 55 54 53 52 51 50 48 46 45 44 43 42 40 39 38 38 36 35 33 32 31 31 30 29 29 29 30 30 30 31 32 32 33 34 34 35 36 36 36
49 48 49 50 52 53 55 58 58 55 56 56 54 53 52 51 49 47 46 45 44 42 42 41 39 38 38 36 35 33 32 31 31 31 31 31 31 31 31 32 32 33 34 34 35 35 36 36 37
46 47 48 49 51 53 54 57 59 56 57 57 55 53 52 51 50 49 47 46 45 43 42 41 40 39 38 37 36 35 33 33 33 32 32 32 32 32 33 33 33 34 34 35 35 35 35 36 37
43 45 46 47 49 54 54 55 58 56 55 54 54 53 52 51 51 50 48 47 45 44 43 42 41 40 39 38 37 36 35 34 34 33 33 33 33 34 34 34 34 34 35 35 35 35 36 36 37
42 44 45 48 50 52 51 55 57 53 52 52 53 53 52 51 51 50 49 47 45 44 43 43 42 41 40 39 38 36 36 36 35 34 34 34 34 34 34 35 35 35 35 35 35 35 36 36 37
44 44 45 45 47 49 50 55 55 51 50 50 51 51 52 52 50 50 50 48 47 46 45 43 42 41 40 39 38 37 36 36 35 35 36 36 35 35 35 35 35 35 35 35 35 35 36 36 37
43 44 42 42 43 45 49 52 53 51 50 49 49 50 50 50 50 49 49 49 48 47 46 45 43 42 41 40 39 38 37 36 36 36 36 36 35 35 35 35 35 35 35 34 35 35 36 36 37
40 40 42 42 42 42 44 48 50 48 48 48 48 48 48 49 49 49 49 49 48 47 47 45 44 42 42 41 40 39 37 37 37 37 36 35 34 34 34 35 35 35 34 34 34 35 36 36 37
39 41 42 43 42 41 39 42 44 45 45 46 46 46 46 47 48 49 49 49 49 47 47 45 44 43 42 41 40 39 39 38 37 37 36 35 34 34 34 35 34 34 33 34 34 35 36 36 37
37 40 41 43 44 42 37 35 38 42 43 43 44 45 46 47 47 48 49 48 48 48 47 46 45 44 43 42 41 40 39 38 38 36 36 35 34 34 34 34 34 33 33 34 34 34 36 37 38
Wind_Direction
250 249 248 248 247 244 240 235 233 229 228 227 226 227 228 229 231 233 231 228 228 229 229 229 229 231 232 233 235 236 238 241 247 253 259 265 271 278 285 290 294 297 299 303 307 308 308 309 310
249 248 247 247 247 244 238 236 233 230 229 229 230 230 230 231 232 233 232 228 228 229 230 230 230 231 232 234 234 235 238 243 248 254 259 264 270 277 283 288 292 295 299 303 305 306 306 308 309
247 246 246 246 246 244 238 236 234 231 230 229 230 230 229 231 232 232 231 229 228 228 230 231 231 231 232 234 234 236 239 243 248 252 258 263 270 277 283 288 291 294 298 301 303 305 306 307 308
246 245 245 245 244 241 237 237 236 232 230 229 229 229 230 231 232 232 231 230 229 228 230 231 231 231 232 235 235 238 240 243 247 252 257 263 269 276 283 287 290 294 297 300 303 305 306 307 308
245 244 244 243 241 238 235 236 238 233 231 230 229 229 231 231 231 230 230 229 228 229 230 229 230 231 233 234 236 238 240 242 246 252 256 262 269 277 282 286 290 294 297 301 304 306 307 308 309
244 243 243 242 239 236 235 235 238 234 232 230 230 230 230 230 230 229 229 229 228 228 229 229 229 231 232 234 236 238 239 242 246 251 255 262 269 278 282 285 290 294 298 301 304 306 307 308 309
243 243 242 240 237 235 235 235 236 235 232 231 231 231 230 229 228 229 229 229 228 227 228 228 229 229 231 234 236 237 239 242 246 249 254 262 271 278 280 285 291 295 298 301 304 306 308 309 310
242 242 240 238 236 235 234 234 234 233 232 231 231 230 230 228 228 228 228 228 227 226 227 228 228 229 231 233 235 237 238 241 245 248 255 263 271 277 280 285 291 295 299 302 305 307 309 309 310
239 240 238 237 237 234 234 234 232 233 231 230 231 231 230 228 227 227 227 227 227 226 226 227 228 229 231 233 235 236 237 240 244 249 256 263 270 276 280 285 290 295 299 302 305 307 309 309 310
238 239 238 237 235 234 233 233 231 231 230 230 231 231 230 229 227 226 226 227 226 226 226 226 227 228 231 233 234 235 237 240 244 250 256 262 270 275 280 285 289 294 299 302 305 307 308 309 310
237 237 236 234 232 232 232 231 230 230 229 229 231 231 231 228 225 225 225 225 226 226 226 227 227 228 230 231 232 234 237 241 245 251 255 262 269 274 280 285 290 294 298 302 305 307 309 310 311
236 235 234 232 231 231 231 231 229 229 229 229 229 229 229 226 225 223 223 224 225 226 227 226 227 229 230 231 232 234 237 241 246 250 255 262 268 273 280 286 291 294 298 302 304 307 309 311 312
235 233 233 231 230 230 230 229 229 227 227 227 228 228 228 225 224 223 222 223 224 225 226 226 227 229 230 230 231 234 237 242 246 251 257 262 267 274 282 287 291 294 297 301 303 306 309 311 312
234 232 232 231 229 228 230 229 228 226 226 226 227 228 227 226 224 223 223 224 225 225 226 226 228 228 229 229 232 234 238 243 247 252 257 262 268 276 283 288 291 294 297 300 303 306 309 311 312
233 232 231 230 229 228 229 229 227 225 225 225 226 227 225 225 224 224 224 225 225 226 226 227 228 228 228 230 232 236 240 244 249 253 258 264 270 277 283 288 291 294 297 300 303 306 309 311 312
232 232 231 229 229 228 229 229 226 225 226 225 225 226 225 224 224 224 225 225 225 226 227 227 227 227 228 231 234 237 241 246 250 255 260 265 271 277 283 288 291 294 297 300 303 306 308 310 311
232 232 232 229 229 229 230 229 225 226 226 225 225 225 225 224 224 224 225 225 226 226 227 227 227 228 229 232 235 239 242 247 251 256 261 266 271 277 283 288 291 294 296 300 303 305 308 309 310
232 232 231 230 228 229 230 229 225 226 226 225 225 225 224 224 224 224 225 225 226 226 227 228 228 229 231 234 237 240 244 248 252 257 262 267 272 278 283 287 290 293 297 299 302 304 306 308 309
233 232 231 229 228 230 230 229 226 226 226 225 224 224 224 225 224 224 225 225 226 227 228 228 229 231 233 235 238 242 245 249 252 257 262 267 273 278 282 286 290 294 297 299 301 303 305 307 308
231 231 230 228 228 230 229 228 226 225 225 224 224 224 225 225 225 225 225 225 226 227 229 230 231 232 234 237 239 242 245 249 252 257 263 268 272 277 282 287 291 294 296 298 300 301 304 305 307
229 230 229 228 227 229 229 228 226 225 225 224 224 224 224 225 226 226 226 227 227 228 230 231 232 234 236 238 241 243 246 249 254 259 264 268 272 277 283 287 291 293 295 297 299 300 303 304 305
227 227 229 229 228 228 228 230 226 225 224 224 224 224 224 225 226 227 228 228 229 230 231 233 234 235 237 239 241 244 247 251 255 259 264 269 274 278 283 287 290 292 294 296 298 300 302 303 305
225 226 229 229 230 229 226 230 227 226 225 224 224 225 225 226 227 229 229 229 230 231 232 233 235 236 238 240 242 245 248 251 255 260 265 270 274 278 282 286 288 291 293 295 297 299 301 303 304
224 225 228 229 231 231 225 230 228 226 226 225 225 225 226 227 228 229 230 230 231 231 233 234 235 237 239 241 243 246 249 252 256 261 265 270 274 278 282 284 287 290 292 293 296 298 300 302 303
223 223 226 229 231 232 228 231 229 225 226 226 225 226 226 227 227 228 230 230 231 231 233 235 237 238 240 242 244 247 250 253 257 261 266 271 275 277 280 283 285 289 290 292 295 298 300 301 302
224 225 228 232 235 234 232 233 229 227 227 226 225 226 226 227 228 228 230 230 231 232 232 235 238 239 241 242 245 248 251 254 258 262 267 271 273 276 279 282 285 287 289 292 294 297 298 300 301
226 227 228 232 234 236 235 233 231 229 229 227 225 225 226 227 228 229 230 231 231 232 233 235 237 239 242 245 247 249 251 255 259 263 266 270 273 276 279 282 284 286 288 291 294 296 298 299 301
225 227 226 227 233 236 236 234 231 231 231 228 227 226 226 227 228 229 230 231 231 232 234 235 237 240 243 245 247 249 251 255 259 263 266 269 272 275 279 281 283 285 288 291 293 295 297 298 300
223 225 226 228 232 233 237 234 231 232 233 231 229 228 227 227 229 230 231 231 232 232 234 236 237 240 243 245 247 248 251 254 258 262 265 268 271 275 278 280 282 285 287 290 292 294 296 298 300
225 226 227 228 229 231 233 232 230 233 232 232 232 230 229 228 229 230 231 232 232 233 235 235 237 240 243 244 246 248 251 254 258 261 264 268 270 273 276 279 281 284 287 289 292 294 296 298 300
Height
5811 5812 5813 5814 5816 5818 5821 5825 5826 5828 5831 5833 5835 5837 5840 5843 5845 5849 5851 5854 5856 5859 5861 5863 5865 5867 5869 5870 5872 5873 5874 5875 5876 5876 5877 5877 5877 5877 5877 5877 5877 5877 5876 5876 5875 5874 5874 5873 5871
5805 5806 5807 5808 5810 5813 5818 5820 5821 5823 5825 5828 5831 5834 5837 5838 5840 5843 5847 5850 5853 5855 5857 5860 5862 5864 5866 5868 5869 5871 5872 5873 5874 5874 5875 5875 5875 5876 5876 5876 5875 5875 5875 5874 5874 5873 5872 5871 5869
5798 5799 5801 5802 5805 5810 5814 5815 5816 5818 5820 5823 5827 5829 5832 5833 5836 5839 5843 5846 5849 5852 5854 5857 5859 5861 5863 5865 5867 5868 5869 5870 5871 5872 5873 5873 5874 5874 5874 5874 5874 5873 5873 5872 5872 5871 5870 5868 5867
5791 5792 5794 5797 5801 5805 5808 5809 5810 5812 5815 5818 5821 5824 5827 5830 5833 5836 5838 5842 5845 5848 5851 5853 5856 5858 5860 5862 5864 5866 5867 5868 5869 5870 5871 5871 5872 5872 5872 5872 5872 5871 5871 5870 5869 5868 5867 5866 5864
5782 5784 5787 5790 5795 5799 5801 5803 5803 5807 5810 5813 5816 5819 5821 5825 5828 5831 5833 5837 5841 5844 5847 5850 5852 5855 5857 5859 5861 5863 5864 5866 5867 5868 5868 5869 5869 5870 5870 5870 5870 5869 5869 5868 5867 5866 5864 5863 5861
5773 5776 5779 5783 5789 5793 5795 5797 5798 5801 5804 5807 5810 5813 5816 5820 5823 5826 5829 5833 5837 5840 5843 5846 5848 5851 5854 5856 5858 5860 5861 5863 5864 5865 5866 5867 5867 5867 5867 5867 5867 5867 5866 5865 5864 5863 5861 5860 5858
5765 5767 5770 5776 5781 5786 5789 5790 5792 5795 5798 5802 5804 5807 5810 5814 5818 5821 5824 5828 5832 5835 5839 5842 5845 5847 5850 5852 5854 5856 5858 5860 5861 5862 5863 5864 5865 5865 5865 5865 5865 5864 5863 5862 5861 5860 5858 5857 5855
5754 5757 5761 5767 5773 5779 5782 5783 5786 5789 5792 5796 5798 5801 5804 5809 5813 5815 5819 5823 5827 5831 5834 5837 5840 5844 5846 5849 5851 5853 5855 5857 5858 5859 5860 5861 5862 5862 5862 5862 5862 5861 5860 5859 5858 5857 5855 5853 5851
5741 5745 5751 5760 5766 5771 5773 5776 5779 5782 5785 5789 5791 5795 5799 5803 5807 5810 5814 5818 5822 5826 5830 5833 5836 5839 5842 5845 5847 5849 5852 5854 5855 5857 5858 5858 5859 5859 5859 5859 5859 5858 5857 5856 5855 5853 5852 5850 5848
5729 5734 5745 5753 5757 5761 5764 5767 5771 5775 5779 5783 5785 5789 5793 5798 5802 5805 5809 5813 5817 5821 5825 5828 5832 5835 5838 5841 5843 5846 5848 5850 5852 5853 5854 5855 5856 5856 5856 5856 5855 5855 5854 5852 5851 5850 5848 5846 5844
5718 5726 5735 5741 5746 5749 5753 5758 5763 5767 5772 5776 5779 5783 5788 5792 5796 5800 5803 5807 5811 5815 5820 5823 5827 5830 5834 5837 5839 5842 5844 5846 5848 5849 5851 5852 5852 5852 5852 5852 5852 5851 5850 5849 5847 5845 5844 5842 5839
5708 5716 5722 5729 5734 5739 5744 5749 5754 5759 5765 5769 5772 5776 5781 5785 5790 5794 5798 5802 5806 5810 5814 5818 5822 5825 5829 5832 5835 5838 5840 5842 5844 5846 5847 5848 5848 5849 5848 5848 5848 5847 5846 5844 5843 5841 5839 5837 5834
5695 5704 5710 5717 5722 5728 5733 5738 5745 5751 5757 5761 5764 5769 5774 5779 5783 5787 5792 5796 5800 5805 5809 5813 5817 5820 5824 5827 5831 5834 5836 5838 5840 5841 5843 5843 5844 5844 5844 5844 5843 5843 5841 5840 5838 5837 5834 5832 5829
5685 5691 5697 5704 5711 5718 5723 5729 5734 5743 5748 5753 5757 5762 5767 5772 5777 5782 5786 5790 5795 5800 5804 5808 5812 5815 5819 5823 5826 5829 5832 5834 5836 5837 5838 5839 5840 5840 5840 5840 5839 5838 5837 5835 5833 5831 5829 5826 5823
5672 5677 5684 5692 5701 5708 5712 5717 5726 5736 5740 5745 5750 5755 5760 5765 5770 5776 5780 5785 5790 5794 5798 5802 5806 5810 5814 5818 5821 5824 5827 5829 5831 5832 5833 5834 5835 5835 5835 5835 5834 5833 5832 5830 5828 5826 5823 5821 5818
5659 5664 5672 5684 5691 5697 5701 5707 5720 5726 5730 5736 5742 5747 5753 5758 5764 5769 5774 5779 5784 5788 5793 5797 5801 5805 5809 5813 5816 5819 5822 5824 5826 5827 5828 5829 5830 5830 5830 5830 5829 5828 5826 5825 5823 5820 5818 5815 5812
5646 5653 5663 5674 5680 5686 5690 5698 5710 5715 5721 5728 5734 5740 5745 5751 5756 5762 5767 5772 5777 5782 5787 5791 5796 5800 5804 5807 5811 5814 5817 5819 5821 5822 5823 5824 5825 5825 5825 5825 5824 5822 5821 5819 5817 5815 5812 5809 5806
5637 5644 5652 5661 5670 5675 5679 5688 5699 5705 5711 5718 5725 5731 5737 5744 5750 5756 5761 5766 5771 5776 5781 5785 5790 5794 5798 5802 5805 5808 5811 5813 5815 5817 5818 5819 5819 5820 5819 5819 5818 5817 5815 5813 5811 5808 5806 5803 5800
5627 5633 5639 5649 5658 5663 5669 5677 5686 5693 5700 5708 5716 5723 5730 5737 5743 5748 5753 5758 5764 5769 5774 5779 5784 5788 5792 5796 5800 5803 5806 5808 5810 5811 5812 5813 5814 5814 5814 5813 5812 5811 5809 5807 5805 5802 5800 5797 5793
5614 5620 5628 5638 5646 5651 5657 5664 5674 5681 5690 5699 5707 5714 5722 5729 5735 5741 5746 5751 5757 5762 5768 5773 5778 5782 5787 5791 5794 5797 5799 5801 5804 5805 5807 5808 5808 5808 5807 5807 5806 5804 5803 5801 5798 5796 5793 5790 5787
5603 5610 5619 5627 5634 5639 5646 5652 5661 5670 5680 5688 5697 5705 5713 5720 5727 5733 5739 5744 5750 5756 5762 5767 5772 5776 5780 5784 5787 5790 5793 5795 5798 5800 5801 5801 5801 5802 5801 5800 5799 5798 5796 5794 5792 5789 5786 5783 5780
5594 5603 5610 5616 5622 5628 5636 5640 5651 5661 5669 5678 5688 5696 5704 5712 5719 5725 5731 5738 5744 5749 5755 5760 5765 5769 5773 5777 5781 5784 5787 5790 5792 5793 5794 5794 5795 5795 5795 5794 5793 5791 5789 5787 5785 5782 5779 5776 5773
5587 5594 5600 5605 5611 5617 5624 5629 5640 5650 5658 5669 5680 5688 5697 5704 5711 5718 5724 5730 5736 5742 5747 5753 5758 5762 5766 5770 5774 5777 5780 5783 5784 5786 5787 5788 5788 5788 5788 5787 5786 5784 5782 5780 5778 5775 5773 5769 5766
5578 5584 5589 5594 5599 5604 5615 5620 5629 5641 5652 5663 5672 5680 5688 5696 5703 5710 5716 5722 5728 5735 5740 5745 5750 5755 5759 5763 5767 5770 5773 5775 5777 5779 5780 5781 5782 5781 5781 5780 5779 5777 5775 5773 5771 5768 5765 5762 5759
5568 5575 5580 5584 5588 5596 5608 5610 5619 5636 5645 5654 5663 5671 5679 5687 5694 5701 5707 5714 5720 5727 5732 5737 5742 5747 5751 5755 5759 5763 5766 5768 5770 5772 5773 5774 5774 5774 5774 5773 5772 5770 5768 5766 5764 5761 5758 5755 5752
5562 5568 5575 5580 5585 5593 5598 5601 5615 5629 5637 5644 5653 5662 5669 5677 5685 5692 5699 5706 5712 5718 5724 5729 5734 5739 5743 5748 5752 5755 5758 5760 5763 5764 5766 5766 5767 5767 5766 5765 5764 5763 5761 5759 5756 5754 5751 5748 5744
5554 5560 5569 5574 5578 5583 5588 5598 5609 5618 5626 5636 5644 5652 5660 5668 5676 5683 5690 5697 5703 5709 5716 5721 5726 5731 5736 5740 5744 5748 5750 5753 5755 5756 5758 5759 5759 5759 5758 5758 5757 5755 5753 5751 5749 5747 5744 5741 5737
5549 5556 5560 5565 5570 5575 5582 5590 5600 5610 5618 5628 5636 5644 5652 5660 5667 5674 5681 5688 5694 5701 5707 5713 5718 5723 5728 5732 5736 5739 5742 5745 5747 5748 5750 5751 5751 5751 5751 5750 5749 5747 5746 5744 5742 5739 5736 5733 5730
5543 5548 5553 5559 5565 5570 5576 5587 5596 5603 5611 5620 5628 5636 5643 5650 5657 5664 5672 5679 5685 5691 5698 5704 5709 5715 5719 5724 5728 5731 5734 5737 5739 5740 5742 5743 5743 5743 5743 5742 5741 5740 5738 5736 5734 5732 5729 5726 5722
5536 5541 5547 5553 5559 5564 5570 5581 5587 5594 5602 5610 5619 5626 5634 5641 5648 5655 5662 5669 5676 5683 5689 5695 5701 5706 5711 5715 5719 5723 5726 5728 5730 5732 5734 5734 5735 5735 5735 5734 5733 5732 5730 5729 5727 5724 5721 5718 5714